Time,TemperatureF,DewpointF,PressureIn,WindDirection,WindDirectionDegrees,WindSpeedMPH,WindSpeedGustMPH,Humidity,HourlyPrecipIn,Conditions,Clouds,dailyrainin,SoftwareType,DateUTC
2013-10-16 00:12:00,43.0,19.0,-100.00,NE,38,4.0,7.0,36,-99.99,,,-99.99,,2013-10-16 00:12:00,
2013-10-16 00:22:00,43.0,19.0,-100.00,NNE,14,2.0,7.0,37,-99.99,,,-99.99,,2013-10-16 00:22:00,
2013-10-16 01:22:00,37.0,24.0,-100.00,ESE,122,5.0,6.0,59,-99.99,,,-99.99,,2013-10-16 01:22:00,
2013-10-16 01:42:00,36.0,24.0,-100.00,South,177,6.0,7.0,62,-99.99,,,-99.99,,2013-10-16 01:42:00,
2013-10-16 02:42:00,34.0,25.0,-100.00,ESE,113,2.0,6.0,67,-99.99,,,-99.99,,2013-10-16 02:42:00,
2013-10-16 03:11:00,33.0,24.0,-100.00,SSE,165,8.0,9.0,70,-99.99,,,-99.99,,2013-10-16 03:11:00,
2013-10-16 04:24:00,32.0,23.0,-100.00,SE,144,4.0,7.0,70,-99.99,,,-99.99,,2013-10-16 04:24:00,
2013-10-16 04:43:00,33.0,23.0,-100.00,ESE,121,7.0,9.0,66,-99.99,,,-99.99,,2013-10-16 04:43:00,
2013-10-16 05:13:00,32.0,23.0,-100.00,SE,125,4.0,9.0,67,-99.99,,,-99.99,,2013-10-16 05:13:00,
2013-10-16 05:43:00,31.0,22.0,-100.00,SSE,154,4.0,6.0,69,-99.99,,,-99.99,,2013-10-16 05:43:00,
2013-10-16 06:22:00,32.0,22.0,-100.00,SE,142,9.0,12.0,67,-99.99,,,-99.99,,2013-10-16 06:22:00,
2013-10-16 06:43:00,32.0,22.0,-100.00,SE,139,8.0,12.0,67,-99.99,,,-99.99,,2013-10-16 06:43:00,
2013-10-16 07:11:00,31.0,22.0,-100.00,SE,139,9.0,13.0,66,-99.99,,,-99.99,,2013-10-16 07:11:00,
2013-10-16 07:42:00,31.0,22.0,-100.00,SSE,147,10.0,12.0,66,-99.99,,,-99.99,,2013-10-16 07:42:00,
2013-10-16 08:11:00,31.0,22.0,-100.00,SE,144,7.0,15.0,67,-99.99,,,-99.99,,2013-10-16 08:11:00,
2013-10-16 08:21:00,31.0,21.0,-100.00,SSE,147,7.0,11.0,67,-99.99,,,-99.99,,2013-10-16 08:21:00,
2013-10-16 08:41:00,31.0,21.0,-100.00,SE,142,11.0,16.0,66,-99.99,,,-99.99,,2013-10-16 08:41:00,
2013-10-16 08:52:00,31.0,21.0,-100.00,SE,140,8.0,13.0,67,-99.99,,,-99.99,,2013-10-16 08:52:00,
2013-10-16 09:11:00,31.0,21.0,-100.00,SSE,147,10.0,14.0,66,-99.99,,,-99.99,,2013-10-16 09:11:00,
2013-10-16 09:22:00,31.0,21.0,-100.00,SE,140,7.0,15.0,67,-99.99,,,-99.99,,2013-10-16 09:22:00,
2013-10-16 09:43:00,30.0,21.0,-100.00,SE,140,6.0,13.0,67,-99.99,,,-99.99,,2013-10-16 09:43:00,
2013-10-16 10:42:00,30.0,20.0,-100.00,ESE,120,5.0,15.0,67,-99.99,,,-99.99,,2013-10-16 10:42:00,
2013-10-16 10:53:00,30.0,21.0,-100.00,ESE,122,5.0,9.0,68,-99.99,,,-99.99,,2013-10-16 10:53:00,
2013-10-16 11:03:00,30.0,21.0,-100.00,ESE,122,5.0,9.0,68,-99.99,,,-99.99,,2013-10-16 11:03:00,
2013-10-16 11:22:00,30.0,20.0,-100.00,ESE,123,6.0,15.0,67,-99.99,,,-99.99,,2013-10-16 11:22:00,
2013-10-16 11:42:00,28.0,20.0,-100.00,ESE,108,5.0,14.0,73,-99.99,,,-99.99,,2013-10-16 11:42:00,
2013-10-16 12:21:00,30.0,20.0,-100.00,SE,131,7.0,17.0,67,-99.99,,,-99.99,,2013-10-16 12:21:00,
2013-10-16 12:42:00,28.0,20.0,-100.00,East,93,3.0,13.0,70,-99.99,,,-99.99,,2013-10-16 12:42:00,
2013-10-16 12:52:00,29.0,20.0,-100.00,ESE,114,5.0,12.0,69,-99.99,,,-99.99,,2013-10-16 12:52:00,
2013-10-16 13:42:00,29.0,21.0,-100.00,SE,130,4.0,8.0,71,-99.99,,,-99.99,,2013-10-16 13:42:00,
2013-10-16 15:22:00,31.0,23.0,-100.00,WNW,299,2.0,8.0,70,-99.99,,,-99.99,,2013-10-16 15:22:00,
2013-10-16 15:43:00,32.0,23.0,-100.00,SSE,160,4.0,5.0,67,-99.99,,,-99.99,,2013-10-16 15:43:00,
2013-10-16 17:12:00,41.0,23.0,-100.00,NNW,339,5.0,10.0,48,-99.99,,,-99.99,,2013-10-16 17:12:00,
2013-10-16 17:22:00,42.0,23.0,-100.00,NW,312,6.0,10.0,47,-99.99,,,-99.99,,2013-10-16 17:22:00,
2013-10-16 17:43:00,42.0,21.0,-100.00,NW,314,9.0,14.0,42,-99.99,,,-99.99,,2013-10-16 17:43:00,
2013-10-16 18:11:00,44.0,22.0,-100.00,NW,320,9.0,15.0,41,-99.99,,,-99.99,,2013-10-16 18:11:00,
2013-10-16 18:21:00,44.0,19.0,-100.00,NW,315,11.0,13.0,37,-99.99,,,-99.99,,2013-10-16 18:21:00,
2013-10-16 19:21:00,46.0,20.0,-100.00,NW,305,11.0,15.0,35,-99.99,,,-99.99,,2013-10-16 19:21:00,
2013-10-16 19:52:00,45.0,19.0,-100.00,NW,316,12.0,19.0,34,-99.99,,,-99.99,,2013-10-16 19:52:00,
2013-10-16 20:02:00,45.0,19.0,-100.00,NW,316,12.0,19.0,34,-99.99,,,-99.99,,2013-10-16 20:02:00,
2013-10-16 20:12:00,45.0,19.0,-100.00,NW,316,12.0,19.0,34,-99.99,,,-99.99,,2013-10-16 20:12:00,
2013-10-16 20:22:00,47.0,20.0,-100.00,NW,312,12.0,17.0,34,-99.99,,,-99.99,,2013-10-16 20:22:00,
2013-10-16 20:52:00,46.0,21.0,-100.00,NW,314,14.0,19.0,36,-99.99,,,-99.99,,2013-10-16 20:52:00,
2013-10-16 21:11:00,47.0,22.0,-100.00,WNW,302,10.0,17.0,36,-99.99,,,-99.99,,2013-10-16 21:11:00,
2013-10-16 21:23:00,47.0,20.0,-100.00,NW,311,13.0,18.0,34,-99.99,,,-99.99,,2013-10-16 21:23:00,
2013-10-16 21:54:00,46.0,21.0,-100.00,WNW,294,11.0,19.0,36,-99.99,,,-99.99,,2013-10-16 21:54:00,
2013-10-16 22:14:00,47.0,21.0,-100.00,WNW,296,12.0,19.0,34,-99.99,,,-99.99,,2013-10-16 22:14:00,
2013-10-16 22:23:00,48.0,21.0,-100.00,WNW,302,9.0,14.0,34,-99.99,,,-99.99,,2013-10-16 22:23:00,
2013-10-16 22:42:00,48.0,21.0,-100.00,NW,308,12.0,16.0,34,-99.99,,,-99.99,,2013-10-16 22:42:00,
2013-10-16 23:22:00,48.0,21.0,-100.00,NW,307,9.0,15.0,34,-99.99,,,-99.99,,2013-10-16 23:22:00,
2013-10-16 23:42:00,47.0,21.0,-100.00,NW,308,9.0,14.0,34,-99.99,,,-99.99,,2013-10-16 23:42:00,